Regional Weather Roundup
Issued by NWS Goodland, KS

Home | Current Version | Previous Version | Graphics & Text | Print | Product List | Glossary On
Versions: 1 2 3 4 5 6 7 8 9 10 11 12 13 14 15 16 17 18 19 20 21 22 23 24 25 26 27 28 29 30 31 32 33 34 35 36 37 38 39 40 41 42 43 44 45 46 47 48 49 50
000
ASUS43 KGLD 192308
RWRGLD

GOODLAND FORECAST AREA HOURLY WEATHER ROUNDUP
NATIONAL WEATHER SERVICE GOODLAND KS
500 PM MDT WED JUL 19 2017

...OFFICIAL OBSERVATIONS...

CITY           SKY/WX    TMP DP  RH WIND       PRES   REMARKS
GOODLAND KS    SUNNY     96  59  29 S23G30    30.00F HAZE
HILL CITY KS   SUNNY    103  57  21 S13G20    29.95F HX 102
IMPERIAL NEB   SUNNY    103  51  17 SW15G24   29.94F HX 100
MCCOOK NEB     SUNNY    104  58  21 S16G25    29.92F HX 104
AKRON CO       SUNNY    101  47  16 S21G28    30.01F
BURLINGTON CO  SUNNY     98  56  24 S16       30.04F
LIMON CO       SUNNY     93  50  23 S16G24    30.10F
$$

...UNOFFICIAL OBSERVATIONS...

CITY           SKY/WX    TMP DP  RH WIND       PRES   REMARKS
LENORA KS        N/A     99  32   9 MISG        N/A
NORTON KS      SUNNY    100  46  16 SE14G22   29.93F
SHARON SPRINGS   N/A     98  57  25 S14G22      N/A
TRENTON NEB      N/A    106  32   7 SW9         N/A
KIT CARSON CO    N/A     96  58  27 MISG        N/A
YUMA CO        FAIR      95  59  30 S15G22    29.99F
$$




USA.gov is the U.S. government's official web portal to all federal, state and local government web resources and services.